Alexandria, LA

1:30 AM CST on November 21, 2017 (GMT -0600)
Alexandria International

Weather History for KAEX - February, 2005

Change the Weather History Date:

Tuesday, February 15, 2005

  Actual Average Record
Temperature  
Mean Temperature 65 °F 52 °F  
Max Temperature 78 °F 63 °F 81 °F (1932)
Min Temperature 52 °F 41 °F 16 °F (1905)
Degree Days  
Heating Degree Days 0 13  
Month to date heating degree days 220  
Since 1 July heating degree days 1511  
Growing Degree Days 15 (Base 50)    
Moisture  
Dew Point 56 °F    
Average Humidity 79    
Maximum Humidity 94    
Minimum Humidity 48    
Precipitation  
Precipitation 0.01 in 0.17 in 2.45 in (2012)
Month to date precipitation 2.31  
Year to date precipitation 7.53  
Snow  
Snow 0.00 in - 6.00 in (1895)
Month to date snowfall  
Since 1 July snowfall  
Snow Depth -    
Sea Level Pressure  
Sea Level Pressure 30.01 in    
Wind  
Wind Speed 6 mph (South)    
Max Wind Speed 17 mph    
Max Gust Speed -    
Visibility 7 miles    
Events Fog    
T = Trace of Precipitation, MM = Missing Value Source: NWS Daily Summary

Daily Weather History Graph

Daily Weather History Graph

Search for Another Location

Airport or City:

Trip Planner

Search our weather history database for the weather conditions in past years. The results will help you decide how hot, cold, wet, or windy it might be!

Date:

Astronomy

Feb. 15, 2005 Rise Set
Actual Time 6:51 AM CST 5:57 PM CST
Civil Twilight 6:26 AM CST 6:22 PM CST
Nautical Twilight 5:58 AM CST 6:50 PM CST
Astronomical Twilight 5:29 AM CST 7:19 PM CST
Moon 10:55 AM CST (2/15) 12:17 AM CST (2/15)
Length of Visible Light 11h 55m
Length of Day
11h 06m
Waxing Crescent, 47% of the Moon is Illuminated
Feb 15
Waxing Crescent
Feb 15
First Quarter
Feb 23
Full
Mar 3
Last Quarter
Mar 10
New

Hourly Weather History & Observations

Time (CST) Temp. Dew Point Humidity Pressure Visibility Wind Dir Wind Speed Gust Speed Precip Events Conditions
12:53 AM 53.1 °F 48.0 °F 83% 30.04 in 10.0 mi SSE 3.5 mph - N/A   Clear
1:53 AM 52.0 °F 48.0 °F 86% 30.02 in 10.0 mi SSE 4.6 mph - N/A   Clear
2:22 AM 53.6 °F 51.8 °F 94% 30.01 in 2.5 mi SSE 4.6 mph - N/A   Mostly Cloudy
2:40 AM 53.6 °F 51.8 °F 94% 30.01 in 0.5 mi Calm Calm - N/A Fog Fog
2:42 AM 53.6 °F 51.8 °F 94% 30.01 in 0.2 mi Calm Calm - N/A Fog Fog
2:53 AM 54.0 °F 52.0 °F 93% 30.02 in 0.2 mi Calm Calm - N/A Fog Fog
3:53 AM 55.9 °F 54.0 °F 93% 30.02 in 0.2 mi South 5.8 mph - 0.01 in Fog Fog
4:28 AM 57.2 °F 55.4 °F 94% 30.02 in 0.5 mi South 6.9 mph - N/A Fog Fog
4:53 AM 57.0 °F 55.0 °F 93% 30.05 in 0.5 mi South 4.6 mph - N/A Fog Fog
5:21 AM 57.2 °F 55.4 °F 94% 30.04 in 1.8 mi South 8.1 mph - N/A   Overcast
5:27 AM 57.2 °F 55.4 °F 94% 30.04 in 3.0 mi South 8.1 mph - N/A   Overcast
5:37 AM 57.2 °F 55.4 °F 94% 30.04 in 5.0 mi South 8.1 mph - N/A   Overcast
6:53 AM 59.0 °F 55.0 °F 87% 30.06 in 8.0 mi SSE 4.6 mph - N/A   Overcast
7:53 AM 59.0 °F 55.9 °F 90% 30.07 in 8.0 mi SE 4.6 mph - N/A   Overcast
8:00 AM 60.8 °F 55.4 °F 82% 30.06 in 7.0 mi SSE 4.6 mph - N/A   Overcast
8:09 AM 60.8 °F 55.4 °F 82% 30.06 in 7.0 mi SSE 4.6 mph - N/A   Overcast
8:44 AM 62.6 °F 57.2 °F 82% 30.06 in 9.0 mi SSE 5.8 mph - N/A   Scattered Clouds
8:53 AM 63.0 °F 57.9 °F 84% 30.07 in 10.0 mi SSE 5.8 mph - N/A   Clear
9:53 AM 68.0 °F 60.1 °F 76% 30.07 in 10.0 mi SSW 6.9 mph - N/A   Partly Cloudy
10:53 AM 71.1 °F 60.1 °F 68% 30.06 in 10.0 mi SSW 10.4 mph - N/A   Clear
11:53 AM 73.0 °F 59.0 °F 61% 30.05 in 10.0 mi WSW 8.1 mph - N/A   Clear
12:53 PM 75.0 °F 57.9 °F 55% 30.01 in 10.0 mi SW 17.3 mph - N/A   Clear
1:53 PM 77.0 °F 57.0 °F 50% 29.97 in 10.0 mi SSW 11.5 mph - N/A   Clear
2:53 PM 77.0 °F 57.9 °F 52% 29.95 in 10.0 mi SSW 12.7 mph - N/A   Clear
3:53 PM 78.1 °F 57.0 °F 48% 29.94 in 10.0 mi South 13.8 mph - N/A   Clear
4:53 PM 75.9 °F 57.9 °F 54% 29.94 in 10.0 mi South 12.7 mph - N/A   Clear
5:53 PM 73.0 °F 57.0 °F 57% 29.94 in 10.0 mi SSW 11.5 mph - N/A   Clear
6:53 PM 70.0 °F 55.9 °F 61% 29.96 in 10.0 mi South 10.4 mph - N/A   Clear
7:53 PM 68.0 °F 61.0 °F 78% 29.96 in 10.0 mi South 10.4 mph - N/A   Clear
8:53 PM 66.9 °F 61.0 °F 81% 29.97 in 10.0 mi SSW 12.7 mph - N/A   Clear
9:53 PM 66.9 °F 61.0 °F 81% 29.96 in 10.0 mi SSW 11.5 mph - N/A   Clear
10:53 PM 66.0 °F 61.0 °F 84% 29.96 in 8.0 mi South 9.2 mph - N/A   Partly Cloudy
11:11 PM 66.2 °F 60.8 °F 83% 29.95 in 8.0 mi SSW 11.5 mph - N/A   Mostly Cloudy
11:53 PM 66.0 °F 61.0 °F 84% 29.96 in 7.0 mi SSW 9.2 mph - N/A   Overcast